"Pseudo-MPEC" for P11bX5O

Created 2021 Jan 21 10:07:15 UT using Find_Orb

Click here for an explanation of pseudo-MPECs

 
 Astrometry: 
     P11bX5O  C2020 12 12.49752 11 21 15.75 +14 46 07.4    ~1I1M 21.9 GVNEOCPG96
     P11bX5O  C2020 12 12.50703 11 21 15.72 +14 46 08.4    ~1I1M       VNEOCPG96
     P11bX5O  C2020 12 12.51176 11 21 15.59 +14 46 10.3    ~1I1M       VNEOCPG96
     P11bX5O  C2020 12 24JiZuvGI8YO'kpa'r4k=OqWyOQeM+Yi])2=Xb\!we\C[CJSWoJ`@\F52
     P11bX5O  C2020 12 24:JgYws9@0v,'UoFkJwV`@8)DE:nJh,:8sN5Fg/Vc8re8=i5tO0f2F52
     P11bX5O  C2021 01 09.45151 11 13 48.87 +15 38 58.2    ~1D9b       VNEOCPG96
     P11bX5O  C2021 01 09.45667 11 13 48.76 +15 38 58.1    ~1D9b 21.6 GVNEOCPG96
     P11bX5O  C2021 01 09.46183 11 13 48.61 +15 38 58.2    ~1D9b       VNEOCPG96
     P11bX5O  C2021 01 09.46699 11 13 48.45 +15 38 59.2    ~1D9b       VNEOCPG96
     P11bX5O  C2021 01 12.eLV5EAu]oIMo66LS,LqVi:E=iU]!I'N^.sZ)1O,8DBNJO[h!,DEF51
     P11bX5O  C2021 01 12GjjyFqIMF-5sgr*p$BoK?P,bQ8`P9*G*^GPUpWUWmOyeYojVdj'^F51
     P11bX5O  C2021 01 12@gLY:VsE#W]Ja8tH,1w+Q0TA@se!1`h1f%BOJ`-JGyeH_QyD(cx#F51
     P11bX5O  C2021 01 12*KB+6(NGn*'kYQk?9o@mH+o-6nQW*A;/!FFOGo3N`lZ+es_@Ij5VF51
     P11bX5O KC2021 01 13.34894011 12 17.79 +15 48 37.5    ~1D97 20.97GVNEOCPI52
     P11bX5O KC2021 01 13.35671711 12 17.62 +15 48 39.2    ~1D97 21.07GVNEOCPI52
     P11bX5O KC2021 01 13.36450811 12 17.43 +15 48 40.7    ~1D97 21.18GVNEOCPI52
     P11bX5O KC2021 01 14']bynlu0U91!9:I.MwHsWS8*TwJ#A_3vukAwUwjfR)Z!8-S:Z0nrH21
     P11bX5O KC2021 01 14oHo?%jYlmUBo=FUn6uGsAstrometryUHeUv@tH5vqTUbgGUwC$waH21
     P11bX5O KC2021 01 14$-Un\Vgl%S.43_T-ai]Yxlu?m*7.nxfU-Z7d!)C.lWA+2(lU?%S1H21
     P11bX5O ^C2021 01 15.46258311 11 25.529+15 54 04.88   ~1FDq 21.02GVNEOCP568
     P11bX5O ^C2021 01 15.46379611 11 25.497+15 54 05.08   ~1FDq 21.06GVNEOCP568
     P11bX5O ^C2021 01 15.46500911 11 25.469+15 54 05.31   ~1FDq 21.09GVNEOCP568
     P11bX5O KC2021 01 15M%*il7n2lUl*sHgVYNxd:Z1I6W1k*jOs,BeTTWd!;]I)TY\W[vlFN51
     P11bX5O KC2021 01 15yl\VWM`HW4.yy=-V'bLe/rE%TV`*H,*nC:LJ!t'5\ZhyBxZ^JyJYN51
     P11bX5O KC2021 01 15qo_%ydN`HB]cHaBCSY#u2ysm^DlbW=1pwredacted;6J0daGM/.kN51
     P11bX5O KC2021 01 15,+x?/sQbGDkjbHbss_0CUN-@iTGSm9HEX1s/Mclick@.N1R63:0,N51
     P11bX5O KC2021 01 15TtO/6OlDQyaD8cipNbY!(gOmtf[4Pheregh$qR-[LR2KmVc03^m_N51
     P11bX5O KC2021 01 15y4il./Mw9o?=@qC'Sp3euZv_jvLN8sh7b1^pteG34gPT^M6kwIWsN51
     P11bX5O MC2021 01 16*-2N)^WuXEg@0Kj*j8=%YG3qtIcLMtEW'W+dob_MaLGKQlUB^L!=L01
     P11bX5O MC2021 01 16M44^QN1%sB,*'JSD0[_6(1Bt@d2GeOtSv7I$OQD5[`5JJpc:Rt\'L01
     P11bX5O *C2021 01 16oF9eCjs;A0dEgmwe)2kC!omKY-X-j_jRr0O=)j^m/]Z4_!k(VaO(E10
     P11bX5O *C2021 01 16t]`''y*KQV['sKfor12explanationZoF7]Fv8lYo-.w'E7.L68xE10
     P11bX5O *C2021 01 16gI3HBRNT.#y:?PS1/HqEE=\-CLumI/k;jE3RQR=p\p[ky=xYS,W%E10
     P11bX5O |C2021 01 17,RrU;40Xwe)q?ySi5x-h:$gNWM+\Y7Uh-Ch=VB;AED8wE.fCoU]tH06
     P11bX5O |C2021 01 17B1Qoph(bCJo@lfv5'=Z%/xWT`Cw0x5*tF5Cq#KYuNAhn=#v57UDiH06
     P11bX5O  C2021 01 18.49790811 10 06.99 +16 02 06.4    ~1K1q 21.10GVNEOCPG96
     P11bX5O  C2021 01 18.50298711 10 06.86 +16 02 07.0    ~1K1q 21.41GVNEOCPG96
     P11bX5O  C2021 01 18.50807711 10 06.73 +16 02 08.2    ~1K1q 21.44GVNEOCPG96
     P11bX5O  C2021 01 18.51315211 10 06.59 +16 02 08.7    ~1K1q 20.98GVNEOCPG96

Station data:
(568) Mauna Kea  (N19.826116 W155.472200)  US/Hawaii.
(E10) Siding Spring-Faulkes Telescope South  (S31.273173 E149.070280)
   Australia/NSW.
(F51) Pan-STARRS 1, Haleakala  (N20.707235 W156.255910)  US/Hawaii.
   Observers N. Primak, A. Schultz, S. Watters, J. Thiel, T. Goggia. Measurer
   PS1 Science Consortium. 1.8-m Ritchey-Chrétien + CCD.
(F52) Pan-STARRS 2, Haleakala  (N20.707384 W156.255910)  US/Hawaii. 1.8-m
   Ritchey-Chrétien + CCD.
(G96) Mt. Lemmon Survey  (N32.442754 W110.788720)  US/Arizona.  Observers T.
   A. Pruyne, B. M. Africano, E. J. Christensen, G. A. Farneth, D. C. Fuls,
   A. R. Gibbs, A. D. Grauer, H. Gröller, J. A. Johnson, R. A. Kowalski, S.
   M. Larson, G. J. Leonard, D. Rankin, R. L. Seaman, F. C. Shelly. 1.5-m
   reflector + 10K CCD.
(H06) RAS Observatory, Mayhill  (N32.903325 W105.528700)  US/New
   Mexico.  Observers E. Guido, G. Sostero, V. Gonano, L. Donato.
(H21) Astronomical Research Observatory, Westfield  (N39.483057 W87.968270)
   US/Illinois. 0.76-m f/3.0 astrograph + CCD.
(I52) Steward Observatory, Mt. Lemmon Station  (N32.442547 W110.788920)
   US/Arizona.  Observers T. A. Pruyne, B. M. Africano, E. J. Christensen, G.
   A. Farneth, D. C. Fuls, A. R. Gibbs, A. D. Grauer, H. Gröller, J. A.
   Johnson, R. A. Kowalski, S. M. Larson, G. J. Leonard, D. Rankin, R. L.
   Seaman, F. C. Shelly. 1.0-m reflector + CCD.
(L01) Višnjan Observatory, Tičan  (N45.290900 E13.749300)  Croatia.
   Observers K. Korlević, E. Pettarin. Measurer E. Pettarin. 1.0-m f/2.9
   reflector + CCD.
(N51) GROWTH India Telescope, IAO, Hanle  (N32.779244 E78.964610)  India.

Orbital elements:  P11bX5O
   Perihelion 2023 Dec 7.473057 TT = 11:21:12 (JD 2460285.973057)
Epoch 2021 Jan 18.0 TT = JDT 2459232.5   Sa: 0.4898           AutoNEOCP
M 359.84047126                      (J2000 ecliptic)
n   0.00015143     Peri.  211.23643
a 348.598665       Node   314.90027
e   0.9776094      Incl.  157.98025
P6508.61           H   11.2     G   0.15   q 7.80531712  Q 689.392013
From 39 observations 2020 Dec. 12-2021 Jan. 18; mean residual 0".37
Residuals in arcseconds: 
201212 G96  .09-  .68-    210113 I52  .10-  .77-    210115 N51  .32-  .27-    
201212 G96  .83+  .43-    210113 I52  .20+  .27-    210115 N51  .21-  .19+    
201212 G96  .38-  1.1+    210113 I52  .22+  .04+    210116 L01  .91+  .42-    
201224 F52  .58-  .18+    210114 H21  .26+  .20-    210116 L01  .31+  .13-    
201224 F52  .00   .14-    210114 H21  .63+  .30+    210116 E10  .22-  .65+    
210109 G96  .16+  1.1+    210114 H21  .64+  .12+    210116 E10  .17-  .02-    
210109 G96  .27+  .22+    210115 568  .16-  .09-    210116 E10  .35+  .64+    
210109 G96  .19-  .43-    210115 568  .18-  .08-    210117 H06  .01+  .26-    
210109 G96  .80-  .18-    210115 568  .14-  .05-    210117 H06  .22+  .36-    
210112 F51  .03+  .08-    210115 N51  .20-  .25+    210118 G96  .19-  .16+    
210112 F51  .02+  .14-    210115 N51  .33-  .05+    210118 G96  .10-  .05-    
210112 F51  .11+  .17-    210115 N51  .41-  .03+    210118 G96  .00   .33+    
210112 F51  .14+  .01-    210115 N51  .49-  .10-    210118 G96  .06-  .01+    

Ephemerides (geocentric):
Date (UTC) HH   RA              Dec         delta   r     elong  mag
---- -- -- --  -------------   -----------  ------ ------ -----  ---
2021 01 21 10  11 08 47.858   +16 10 01.92  9.2352 9.9927 138.4 21.3
2021 01 21 11  11 08 46.702   +16 10 08.78  9.2346 9.9925 138.5 21.3
2021 01 21 12  11 08 45.545   +16 10 15.65  9.2339 9.9924 138.5 21.3
2021 01 21 13  11 08 44.388   +16 10 22.52  9.2333 9.9922 138.6 21.3
2021 01 21 14  11 08 43.230   +16 10 29.40  9.2327 9.9921 138.6 21.3
2021 01 21 15  11 08 42.072   +16 10 36.27  9.2320 9.9919 138.6 21.3
2021 01 21 16  11 08 40.913   +16 10 43.15  9.2314 9.9918 138.7 21.3
2021 01 21 17  11 08 39.753   +16 10 50.03  9.2308 9.9916 138.7 21.3
2021 01 21 18  11 08 38.592   +16 10 56.91  9.2301 9.9915 138.8 21.3
2021 01 21 19  11 08 37.431   +16 11 03.80  9.2295 9.9913 138.8 21.3
2021 01 21 20  11 08 36.268   +16 11 10.68  9.2289 9.9912 138.9 21.3
2021 01 21 21  11 08 35.106   +16 11 17.57  9.2282 9.9910 138.9 21.3
2021 01 21 22  11 08 33.942   +16 11 24.46  9.2276 9.9909 139.0 21.3
2021 01 21 23  11 08 32.778   +16 11 31.35  9.2270 9.9908 139.0 21.3
2021 01 22 00  11 08 31.613   +16 11 38.25  9.2263 9.9906 139.1 21.3
2021 01 22 01  11 08 30.447   +16 11 45.14  9.2257 9.9905 139.1 21.3
2021 01 22 02  11 08 29.281   +16 11 52.04  9.2251 9.9903 139.2 21.3
2021 01 22 03  11 08 28.114   +16 11 58.94  9.2245 9.9902 139.2 21.3
2021 01 22 04  11 08 26.946   +16 12 05.85  9.2238 9.9900 139.2 21.3
2021 01 22 05  11 08 25.778   +16 12 12.75  9.2232 9.9899 139.3 21.3
2021 01 22 06  11 08 24.609   +16 12 19.66  9.2226 9.9897 139.3 21.3
2021 01 22 07  11 08 23.439   +16 12 26.57  9.2219 9.9896 139.4 21.3
2021 01 22 08  11 08 22.268   +16 12 33.48  9.2213 9.9894 139.4 21.3
2021 01 22 09  11 08 21.097   +16 12 40.39  9.2207 9.9893 139.5 21.3
2021 01 22 10  11 08 19.925   +16 12 47.31  9.2201 9.9891 139.5 21.3
2021 01 22 11  11 08 18.752   +16 12 54.23  9.2194 9.9890 139.6 21.3
2021 01 22 12  11 08 17.579   +16 13 01.15  9.2188 9.9888 139.6 21.3
2021 01 22 13  11 08 16.405   +16 13 08.07  9.2182 9.9887 139.7 21.3
2021 01 22 14  11 08 15.230   +16 13 14.99  9.2176 9.9885 139.7 21.3
2021 01 22 15  11 08 14.054   +16 13 21.92  9.2170 9.9884 139.7 21.3
2021 01 22 16  11 08 12.878   +16 13 28.84  9.2163 9.9882 139.8 21.3
2021 01 22 17  11 08 11.701   +16 13 35.77  9.2157 9.9881 139.8 21.3
2021 01 22 18  11 08 10.524   +16 13 42.70  9.2151 9.9879 139.9 21.3
2021 01 22 19  11 08 09.345   +16 13 49.64  9.2145 9.9878 139.9 21.3
2021 01 22 20  11 08 08.167   +16 13 56.57  9.2138 9.9876 140.0 21.3
2021 01 22 21  11 08 06.987   +16 14 03.51  9.2132 9.9875 140.0 21.3
2021 01 22 22  11 08 05.806   +16 14 10.45  9.2126 9.9873 140.1 21.3
2021 01 22 23  11 08 04.625   +16 14 17.39  9.2120 9.9872 140.1 21.3
2021 01 23 00  11 08 03.444   +16 14 24.33  9.2114 9.9871 140.2 21.3
2021 01 23 01  11 08 02.261   +16 14 31.28  9.2108 9.9869 140.2 21.3
2021 01 23 02  11 08 01.078   +16 14 38.23  9.2101 9.9868 140.3 21.3
2021 01 23 03  11 07 59.894   +16 14 45.18  9.2095 9.9866 140.3 21.3
2021 01 23 04  11 07 58.710   +16 14 52.13  9.2089 9.9865 140.3 21.3
2021 01 23 05  11 07 57.524   +16 14 59.08  9.2083 9.9863 140.4 21.3
2021 01 23 06  11 07 56.338   +16 15 06.04  9.2077 9.9862 140.4 21.3
2021 01 23 07  11 07 55.152   +16 15 12.99  9.2071 9.9860 140.5 21.3
2021 01 23 08  11 07 53.964   +16 15 19.95  9.2064 9.9859 140.5 21.3
2021 01 23 09  11 07 52.776   +16 15 26.91  9.2058 9.9857 140.6 21.3